Temp
-2 -2 -2 -1 -1 -1 -2 -2 -2 -3 -3 -3 -3 -3 -3 -3 -3 -3 -4 -4 -4 -4 -4 -4 -4 -5 -5 -5 -5 -6 -6 -6 -6 -6 -7 -7 -8 -7 -8 -8 -7 -8 -8 -7 -8
-2 -2 -1 -1 -1 -1 -2 -2 -2 -3 -3 -3 -3 -3 -3 -3 -3 -3 -4 -4 -4 -4 -4 -4 -4 -5 -5 -5 -5 -5 -5 -5 -5 -5 -6 -6 -6 -7 -7 -7 -8 -7 -8 -8 -8
-2 -2 -1 -1 -1 -1 -2 -2 -3 -3 -3 -3 -3 -3 -3 -3 -3 -3 -3 -3 -4 -4 -4 -4 -4 -4 -5 -5 -5 -4 -5 -5 -5 -5 -5 -5 -5 -5 -5 -6 -6 -7 -8 -8 -8
-2 -2 -2 -1 -1 -2 -2 -2 -3 -3 -3 -3 -3 -3 -3 -3 -3 -4 -4 -4 -4 -4 -4 -4 -4 -4 -5 -5 -5 -5 -5 -4 -5 -5 -5 -6 -5 -5 -5 -6 -6 -7 -8 -8 -8
-2 -2 -2 -2 -2 -2 -2 -3 -3 -3 -3 -3 -3 -3 -4 -4 -4 -4 -4 -4 -4 -4 -4 -4 -4 -4 -4 -5 -5 -5 -5 -5 -5 -5 -5 -5 -5 -5 -5 -6 -6 -7 -7 -8 -8
-2 -2 -2 -2 -2 -2 -2 -3 -3 -3 -3 -4 -4 -3 -4 -4 -4 -4 -4 -4 -4 -4 -5 -5 -5 -5 -5 -5 -5 -5 -5 -5 -5 -5 -5 -5 -5 -6 -6 -6 -7 -7 -7 -8 -8
-2 -2 -2 -2 -2 -2 -2 -3 -3 -4 -4 -4 -4 -3 -4 -4 -4 -4 -4 -4 -4 -5 -5 -5 -5 -5 -5 -5 -5 -5 -5 -5 -5 -5 -5 -5 -5 -6 -6 -6 -7 -7 -7 -8 -8
-2 -2 -2 -2 -2 -2 -2 -3 -3 -4 -4 -4 -4 -4 -4 -4 -4 -4 -4 -5 -5 -5 -5 -5 -5 -5 -5 -5 -5 -5 -5 -5 -5 -6 -6 -6 -6 -6 -6 -6 -6 -7 -7 -7 -8
-2 -2 -2 -2 -2 -2 -3 -3 -3 -4 -4 -4 -4 -4 -4 -4 -4 -4 -4 -5 -5 -5 -5 -5 -5 -5 -5 -5 -5 -6 -6 -6 -6 -6 -6 -6 -6 -6 -7 -7 -7 -6 -7 -7 -8
-2 -2 -2 -2 -2 -2 -3 -3 -3 -4 -4 -4 -4 -4 -4 -4 -4 -4 -4 -5 -5 -5 -5 -5 -5 -5 -6 -6 -6 -6 -6 -6 -6 -6 -6 -6 -6 -6 -6 -6 -6 -6 -6 -7 -7
-3 -2 -2 -2 -3 -3 -3 -3 -4 -4 -4 -4 -4 -4 -4 -5 -5 -5 -5 -5 -5 -5 -6 -6 -6 -6 -6 -6 -6 -6 -6 -6 -6 -6 -6 -6 -7 -7 -6 -6 -6 -5 -6 -6 -6
-3 -3 -3 -3 -3 -3 -3 -4 -4 -4 -4 -4 -5 -5 -5 -5 -5 -5 -5 -5 -5 -6 -6 -6 -6 -6 -6 -6 -6 -6 -6 -6 -6 -6 -6 -7 -7 -7 -6 -6 -6 -6 -6 -6 -6
-3 -3 -3 -3 -3 -3 -3 -4 -4 -5 -5 -5 -5 -5 -5 -5 -5 -5 -5 -5 -6 -6 -6 -6 -6 -6 -6 -6 -6 -6 -6 -6 -6 -6 -7 -7 -7 -7 -7 -7 -7 -6 -6 -7 -6
-4 -3 -3 -3 -3 -4 -4 -4 -5 -5 -5 -5 -5 -5 -5 -5 -5 -5 -6 -6 -6 -6 -7 -7 -6 -6 -7 -6 -7 -7 -7 -7 -7 -7 -8 -7 -7 -7 -7 -7 -6 -7 -7 -6 -6
-4 -4 -4 -4 -4 -4 -5 -5 -5 -5 -5 -5 -5 -5 -5 -5 -6 -6 -6 -6 -7 -7 -7 -7 -7 -7 -7 -7 -7 -7 -7 -7 -7 -7 -7 -7 -7 -9 -7 -7 -7 -7 -7 -7 -6
-5 -5 -5 -5 -5 -5 -5 -5 -5 -5 -5 -5 -6 -6 -6 -6 -6 -6 -6 -6 -7 -7 -7 -7 -7 -7 -7 -7 -7 -7 -7 -7 -7 -7 -7 -7 -7 -9 -8 -8 -8 -7 -7 -7 -7
-5 -5 -5 -5 -5 -5 -6 -6 -6 -6 -6 -6 -6 -6 -6 -7 -7 -7 -7 -7 -7 -7 -7 -7 -7 -7 -7 -7 -7 -7 -7 -8 -9 -9 -9 -7 -7 -8 -7 -8 -8 -8 -8 -8 -7
-6 -6 -6 -6 -6 -6 -6 -6 -6 -6 -6 -6 -6 -6 -7 -7 -7 -7 -7 -7 -7 -7 -8 -8 -8 -7 -7 -7 -7 -7 -7 -7 -7 -9 -9 -7 -7 -7 -8 -8 -8 -8 -8 -8 -8
-6 -6 -6 -6 -6 -6 -6 -6 -6 -6 -6 -6 -6 -6 -6 -7 -7 -7 -7 -7 -7 -8 -8 -8 -8 -8 -8 -8 -8 -7 -7 -7 -7 -7 -7 -7 -7 -7 -8 -7 -8 -8 -8 -8 -8
-6 -6 -6 -6 -6 -6 -6 -6 -6 -6 -6 -6 -6 -6 -6 -6 -7 -7 -7 -7 -7 -7 -8 -7 -8 -7 -7 -8 -7 -8 -7 -7 -7 -7 -7 -8 -7 -7 -8 -8 -7 -8 -8 -8 -8
-7 -6 -6 -6 -6 -6 -6 -6 -6 -6 -6 -6 -6 -6 -6 -7 -7 -7 -7 -7 -7 -7 -7 -7 -8 -8 -7 -7 -8 -7 -7 -7 -8 -7 -7 -7 -9 -7 -8 -7 -7 -8 -8 -8 -9
-7 -6 -7 -6 -6 -6 -6 -6 -6 -6 -6 -6 -6 -7 -7 -7 -7 -7 -7 -7 -7 -7 -7 -7 -8 -8 -8 -7 -7 -8 -8 -8 -8 -8 -7 -7 -7 -7 -8 -8 -7 -8 -8 -8 -9
-7 -7 -7 -7 -7 -7 -7 -6 -6 -6 -6 -6 -7 -7 -7 -7 -7 -7 -7 -7 -7 -7 -7 -7 -8 -8 -7 -7 -7 -7 -7 -8 -8 -8 -8 -8 -8 -9 -8 -8 -8 -8 -8 -9 -9
-7 -7 -7 -7 -7 -7 -7 -7 -7 -7 -7 -7 -7 -7 -7 -8 -8 -8 -8 -8 -8 -8 -8 -7 -7 -7 -8 -9 -8 -8 -8 -8 -8 -8 -8 -8 -9 -9 -9 -9 -9 -9 -9 -9 -9
-8 -8 -8 -7 -8 -8 -8 -8 -8 -7 -7 -8 -7 -7 -7 -8 -8 -8 -8 -8 -8 -8 -8 -8 -8 -8 -8 -9 -9 -9 -9 -9 -9 -9 -9 -9 -9 -10 -9 -9 -9 -9 -9 -10 -10
-9 -9 -9 -8 -8 -9 -8 -8 -8 -8 -8 -8 -8 -8 -8 -8 -8 -8 -9 -9 -9 -8 -8 -8 -8 -8 -8 -9 -9 -9 -9 -9 -9 -9 -9 -9 -10 -9 -9 -10 -10 -10 -10 -10 -11
-9 -9 -9 -9 -9 -9 -9 -9 -9 -9 -9 -9 -9 -9 -9 -8 -9 -9 -9 -9 -9 -9 -9 -9 -9 -9 -9 -9 -9 -9 -9 -9 -10 -10 -10 -10 -10 -10 -10 -10 -10 -11 -11 -11 -11
Height
5919 5919 5920 5920 5920 5919 5918 5918 5917 5917 5916 5916 5915 5915 5915 5915 5914 5914 5914 5914 5913 5912 5912 5912 5913 5913 5913 5913 5912 5912 5913 5913 5912 5911 5912 5912 5911 5912 5912 5910 5909 5908 5908 5906 5904
5918 5919 5919 5919 5919 5919 5918 5918 5918 5917 5917 5917 5916 5916 5916 5916 5916 5915 5915 5915 5914 5914 5913 5914 5914 5914 5914 5913 5913 5912 5912 5912 5911 5910 5910 5910 5910 5909 5910 5909 5909 5908 5909 5906 5905
5917 5918 5918 5919 5919 5918 5918 5918 5918 5918 5918 5918 5917 5917 5917 5917 5917 5916 5916 5915 5915 5915 5914 5914 5915 5915 5915 5914 5914 5914 5913 5912 5911 5910 5910 5910 5909 5908 5908 5908 5907 5908 5909 5906 5905
5917 5917 5918 5918 5918 5918 5918 5918 5918 5918 5918 5918 5918 5918 5917 5917 5919 5917 5917 5916 5916 5915 5915 5915 5915 5915 5915 5915 5915 5915 5914 5913 5912 5910 5909 5908 5908 5908 5908 5907 5906 5906 5906 5906 5905
5915 5916 5917 5917 5917 5917 5917 5917 5917 5918 5918 5918 5918 5918 5918 5918 5918 5917 5917 5917 5916 5915 5915 5915 5915 5915 5915 5915 5915 5914 5914 5914 5912 5910 5910 5908 5908 5907 5907 5906 5905 5905 5905 5905 5904
5914 5915 5915 5915 5915 5916 5916 5916 5916 5917 5917 5917 5917 5917 5917 5918 5917 5917 5917 5917 5916 5916 5915 5914 5914 5914 5914 5914 5914 5914 5913 5913 5912 5911 5909 5909 5908 5907 5907 5906 5907 5906 5905 5904 5904
5913 5913 5913 5914 5914 5914 5915 5915 5915 5915 5916 5916 5916 5916 5916 5917 5916 5916 5916 5916 5915 5915 5915 5913 5913 5913 5913 5912 5913 5912 5912 5911 5910 5910 5909 5908 5907 5906 5905 5904 5904 5905 5904 5903 5902
5911 5912 5912 5912 5912 5913 5913 5913 5914 5914 5914 5914 5914 5914 5914 5914 5914 5914 5914 5913 5913 5913 5913 5912 5912 5912 5911 5911 5910 5910 5911 5909 5908 5908 5907 5907 5904 5903 5903 5903 5902 5902 5901 5901 5900
5909 5910 5910 5910 5910 5911 5911 5911 5912 5912 5912 5912 5912 5912 5913 5912 5912 5912 5912 5911 5911 5910 5910 5910 5910 5910 5909 5908 5907 5907 5907 5907 5906 5905 5905 5904 5902 5900 5899 5897 5897 5896 5895 5896 5895
5906 5907 5908 5908 5908 5909 5908 5909 5909 5910 5910 5909 5909 5911 5910 5910 5909 5909 5909 5908 5907 5907 5907 5907 5908 5908 5907 5906 5906 5905 5904 5902 5901 5901 5901 5901 5900 5897 5895 5894 5892 5891 5890 5890 5890
5903 5904 5905 5905 5906 5905 5906 5906 5908 5907 5907 5907 5907 5906 5906 5906 5906 5906 5905 5904 5903 5903 5903 5904 5906 5905 5905 5904 5903 5903 5902 5901 5898 5897 5897 5896 5895 5895 5893 5891 5889 5887 5886 5885 5885
5899 5900 5901 5902 5902 5902 5902 5902 5902 5903 5903 5903 5903 5903 5903 5903 5902 5902 5901 5901 5899 5899 5900 5902 5902 5901 5901 5901 5901 5900 5900 5899 5897 5896 5895 5893 5892 5891 5890 5889 5887 5885 5883 5882 5880
5895 5896 5896 5897 5898 5898 5898 5898 5898 5898 5899 5899 5899 5899 5899 5899 5898 5897 5897 5896 5895 5896 5897 5898 5898 5897 5897 5898 5898 5897 5896 5896 5895 5894 5893 5891 5889 5887 5886 5885 5883 5882 5880 5878 5876
5890 5891 5892 5892 5894 5893 5893 5893 5893 5893 5894 5895 5895 5895 5894 5894 5893 5892 5892 5893 5892 5893 5894 5894 5894 5893 5893 5893 5894 5892 5892 5891 5891 5891 5890 5888 5889 5882 5881 5880 5878 5876 5875 5873 5872
5885 5885 5887 5887 5887 5888 5889 5889 5889 5890 5890 5891 5890 5890 5889 5890 5889 5889 5888 5888 5889 5889 5891 5889 5889 5889 5888 5888 5887 5886 5887 5887 5887 5885 5884 5883 5883 5876 5875 5873 5870 5869 5868 5866 5865
5880 5879 5880 5882 5882 5883 5884 5884 5885 5887 5885 5886 5885 5885 5885 5885 5885 5885 5885 5886 5886 5885 5886 5885 5884 5884 5883 5882 5881 5880 5882 5882 5881 5881 5880 5877 5877 5877 5870 5867 5864 5862 5861 5860 5858
5874 5875 5875 5876 5877 5878 5879 5880 5881 5880 5881 5882 5881 5880 5880 5881 5881 5881 5881 5882 5882 5882 5881 5881 5879 5878 5878 5877 5876 5877 5878 5879 5879 5877 5878 5872 5871 5868 5863 5861 5859 5856 5853 5852 5851
5866 5868 5869 5871 5871 5872 5873 5874 5874 5875 5875 5876 5876 5876 5876 5876 5876 5876 5877 5877 5878 5879 5877 5877 5874 5874 5874 5873 5872 5872 5873 5873 5872 5872 5871 5864 5865 5859 5858 5854 5852 5849 5847 5843 5841
5859 5861 5862 5864 5865 5866 5868 5868 5868 5869 5870 5870 5870 5870 5870 5870 5871 5871 5872 5871 5872 5874 5874 5872 5869 5868 5868 5868 5869 5864 5867 5867 5865 5863 5862 5860 5857 5854 5851 5847 5843 5840 5837 5835 5833
5851 5853 5855 5856 5858 5859 5860 5860 5861 5862 5863 5863 5863 5865 5864 5865 5865 5865 5865 5866 5866 5867 5868 5866 5865 5863 5862 5862 5862 5861 5860 5859 5857 5857 5855 5853 5849 5844 5843 5839 5836 5833 5829 5826 5823
5844 5845 5847 5848 5850 5851 5852 5852 5853 5854 5855 5856 5856 5856 5857 5858 5858 5858 5857 5859 5859 5859 5860 5859 5860 5854 5857 5855 5855 5854 5854 5855 5853 5851 5849 5847 5846 5836 5834 5830 5828 5825 5820 5817 5814
5835 5837 5838 5839 5843 5842 5843 5844 5845 5846 5847 5848 5849 5849 5849 5850 5850 5850 5850 5849 5851 5851 5851 5851 5852 5852 5849 5848 5849 5848 5847 5846 5845 5842 5839 5837 5839 5831 5827 5822 5818 5814 5810 5806 5803
5826 5828 5829 5831 5832 5833 5835 5835 5836 5838 5839 5839 5840 5842 5842 5842 5843 5842 5842 5842 5843 5842 5842 5843 5843 5844 5843 5842 5840 5841 5841 5839 5837 5834 5833 5831 5831 5821 5817 5812 5807 5804 5801 5796 5792
5816 5818 5820 5821 5823 5824 5826 5827 5827 5828 5829 5831 5832 5833 5834 5834 5835 5835 5835 5835 5835 5834 5833 5834 5835 5836 5838 5835 5833 5832 5831 5829 5827 5825 5822 5821 5816 5815 5809 5805 5799 5795 5791 5786 5781
5803 5806 5808 5810 5812 5814 5815 5818 5818 5819 5820 5821 5822 5823 5825 5826 5827 5827 5827 5827 5827 5826 5825 5827 5828 5827 5828 5825 5824 5824 5824 5820 5817 5816 5812 5812 5806 5803 5800 5794 5789 5785 5780 5776 5772
5791 5793 5796 5798 5800 5803 5804 5806 5807 5809 5811 5811 5812 5813 5815 5816 5817 5817 5819 5818 5817 5818 5817 5818 5818 5818 5818 5815 5813 5813 5813 5810 5808 5807 5803 5800 5798 5791 5791 5785 5780 5776 5772 5767 5763
5778 5781 5783 5786 5787 5790 5791 5794 5796 5798 5799 5800 5802 5803 5803 5803 5806 5808 5808 5809 5809 5809 5808 5810 5809 5808 5809 5807 5803 5803 5803 5801 5798 5796 5793 5790 5787 5785 5781 5776 5772 5769 5764 5759 5754
Wind_Speed
6 4 3 3 4 7 7 6 7 7 8 9 10 11 10 11 11 12 13 12 12 11 11 12 12 11 11 8 6 3 2 3 4 5 7 5 9 11 11 15 17 18 16 10 8
4 2 2 3 5 6 6 5 6 7 8 9 10 11 11 11 11 10 9 9 9 8 9 9 9 10 9 7 6 5 3 1 1 0 2 4 4 9 11 14 16 15 14 8 9
3 1 1 2 4 5 4 4 4 5 7 9 10 11 11 10 9 9 7 6 7 7 6 6 7 7 7 5 5 5 6 7 7 7 8 8 6 6 6 9 10 10 10 3 6
2 0 1 2 4 4 3 3 3 3 4 6 7 8 9 9 8 8 6 5 4 5 3 3 4 5 5 3 4 5 6 8 7 8 10 10 9 9 9 8 8 7 7 2 4
2 2 2 2 4 3 2 1 1 1 1 3 4 5 6 7 7 8 6 4 3 3 2 1 2 3 4 5 5 5 5 5 6 8 8 9 9 9 8 7 6 4 7 4 2
4 3 3 2 3 3 2 1 1 1 2 4 4 4 4 4 5 6 6 6 5 5 4 4 4 3 3 5 5 4 4 3 2 6 6 7 8 8 6 7 5 6 4 5 7
5 4 3 3 4 4 4 3 3 3 4 5 5 6 6 6 5 6 6 6 8 8 7 7 7 7 6 6 6 5 5 4 4 3 6 9 8 7 7 8 7 5 9 9 10
6 5 5 5 6 6 6 6 6 6 6 7 8 8 8 8 8 8 8 9 8 10 10 11 9 8 7 8 8 7 6 6 6 6 6 7 13 11 10 10 12 12 12 11 13
9 7 7 7 7 8 7 8 9 9 10 9 10 10 9 9 9 10 11 11 12 14 12 11 9 8 8 9 10 9 10 7 7 7 7 8 13 15 15 16 15 15 18 18 20
10 9 9 10 10 10 9 9 11 11 12 11 12 12 11 10 11 12 14 16 18 17 13 11 8 8 8 7 8 10 10 12 11 13 11 12 13 16 17 16 15 16 18 20 20
11 12 12 12 13 13 12 12 12 12 12 13 13 12 12 12 13 15 18 20 22 16 12 10 9 9 8 9 9 11 11 13 14 15 16 17 17 16 17 16 15 14 16 19 19
15 15 15 14 15 15 14 14 15 15 14 14 14 14 15 16 16 18 21 22 18 12 10 10 12 11 10 10 11 12 13 14 15 15 16 17 18 18 16 14 15 13 15 17 24
17 17 17 17 17 16 16 15 15 16 16 16 15 14 16 18 20 21 22 19 13 11 10 11 13 13 13 12 13 14 15 15 15 15 16 18 20 18 17 16 12 11 10 13 16
19 18 18 19 18 17 17 17 16 17 17 17 16 18 18 18 19 19 17 14 12 12 12 14 15 15 16 16 16 19 17 17 16 16 13 18 16 26 20 17 16 13 11 13 15
20 21 20 19 19 18 18 18 17 16 19 18 17 17 17 17 17 16 14 13 13 13 14 17 17 18 20 21 21 22 19 17 18 19 20 23 18 24 20 21 20 16 15 15 16
20 21 22 20 19 18 18 18 17 15 17 17 17 17 15 13 12 12 12 13 13 15 16 18 19 20 22 23 24 23 20 21 21 20 21 22 19 14 22 22 24 21 20 19 20
22 20 21 22 21 20 19 18 18 17 17 16 14 14 14 15 16 15 15 12 13 15 18 17 19 20 20 22 22 23 23 16 14 15 12 25 23 20 26 24 24 25 25 23 22
21 19 18 18 19 19 19 18 19 18 16 15 15 17 19 18 17 18 18 17 15 16 20 19 22 21 21 23 26 26 25 25 25 17 17 28 22 27 23 24 27 26 25 29 30
24 21 21 21 21 21 21 21 21 20 19 19 20 21 21 22 22 21 21 24 21 18 20 22 27 25 25 25 25 31 27 26 25 26 23 23 24 25 23 28 27 29 31 32 31
29 27 27 27 26 26 26 27 26 25 24 23 24 23 24 23 24 24 25 25 24 23 22 24 25 27 27 27 27 26 26 26 26 25 26 22 30 30 27 33 35 33 34 33 35
32 31 29 29 28 28 28 29 28 26 26 25 26 26 26 25 25 27 28 26 26 25 23 23 22 31 24 28 26 25 24 21 24 27 27 28 22 37 35 37 36 33 36 37 36
31 31 30 29 29 29 29 29 29 28 28 27 26 26 26 26 27 28 28 28 25 24 24 23 24 24 29 27 25 24 25 25 28 30 33 34 32 35 34 37 39 39 40 42 41
33 33 32 31 31 31 30 30 31 30 29 29 27 26 25 26 27 27 28 27 26 26 27 27 27 26 28 29 27 25 26 28 29 32 32 34 32 37 40 42 42 43 44 45 42
38 36 34 34 33 33 32 32 33 32 32 32 31 29 29 29 29 29 29 29 29 30 31 31 29 28 25 29 31 31 32 33 33 34 34 35 36 37 37 38 42 44 43 40 38
42 41 40 39 38 37 37 36 36 36 36 35 35 35 33 33 32 32 32 32 32 33 34 32 32 32 29 32 32 32 31 32 34 35 37 37 38 36 39 41 43 40 38 37 36
42 42 43 43 42 40 39 39 38 39 38 39 38 38 38 37 37 36 32 34 35 36 36 35 33 34 33 35 36 36 33 34 35 35 38 37 38 42 37 40 40 37 37 38 39
43 42 42 42 42 42 44 40 41 40 42 41 40 40 40 42 38 37 37 36 37 36 37 35 36 37 36 37 39 38 35 34 35 35 36 38 38 38 36 37 36 34 38 38 40
Wind_Direction
137 123 94 44 18 7 10 25 34 39 45 53 57 66 70 68 68 69 72 73 72 75 82 82 83 83 87 90 104 106 48 3 337 313 306 327 309 312 317 335 338 339 349 14 26
143 124 47 21 18 8 14 28 39 45 55 58 65 71 74 68 67 68 69 71 79 74 74 76 74 85 90 88 79 74 76 320 228 230 216 275 270 288 302 307 296 317 335 10 15
159 131 35 21 14 12 9 20 41 54 69 68 71 74 69 63 63 61 63 69 83 90 75 58 63 71 79 61 53 40 19 6 359 349 351 357 347 4 354 297 319 311 314 18 339
180 83 358 359 5 11 11 9 31 51 63 64 66 67 61 49 53 46 39 49 66 87 85 77 54 37 53 54 18 14 10 353 356 343 335 338 330 344 7 348 342 317 248 218 263
220 277 305 331 351 357 2 11 43 68 45 33 45 46 50 44 39 30 26 21 17 24 50 17 53 34 15 6 6 354 356 350 342 338 337 314 329 337 356 360 359 257 206 193 262
237 270 292 312 333 334 321 296 304 308 315 320 336 347 352 8 16 21 23 16 351 332 313 300 311 329 335 338 338 334 336 344 335 332 308 303 316 314 325 333 354 281 252 227 251
247 270 281 312 310 314 295 261 261 265 287 303 313 313 306 307 316 337 343 354 345 335 305 289 294 303 305 314 321 321 336 330 322 294 291 295 327 297 295 299 300 296 278 271 259
243 265 273 292 301 301 284 260 261 265 273 290 307 309 299 292 294 306 313 321 324 322 307 291 288 289 297 306 311 318 326 331 332 333 325 308 299 313 303 292 290 284 278 272 271
247 263 266 275 287 287 276 263 263 270 270 281 295 301 301 295 288 294 301 307 313 313 300 293 287 285 295 307 311 318 316 317 303 311 312 307 307 321 323 314 301 295 291 282 280
247 261 264 269 281 284 277 265 265 268 268 277 286 294 296 294 291 294 297 304 308 306 290 287 287 285 290 295 290 298 304 304 301 311 320 314 316 322 323 318 305 291 280 275 268
255 261 264 270 277 282 277 271 270 268 270 277 283 287 293 294 294 295 296 301 305 296 280 282 283 282 282 273 273 280 280 284 295 308 315 317 317 313 309 306 296 285 272 265 262
258 261 265 269 275 280 275 269 268 271 273 276 279 284 289 293 294 294 297 303 301 282 272 272 276 280 282 282 280 279 277 274 282 298 305 305 306 303 302 300 287 276 270 257 253
257 261 267 269 272 273 271 268 266 266 269 274 278 284 287 289 293 294 298 301 290 273 268 272 278 281 288 290 291 282 273 277 279 291 290 296 305 301 293 295 283 281 264 259 256
261 261 265 270 271 270 269 270 270 270 273 275 280 283 286 289 290 294 298 294 281 278 275 273 282 285 287 289 292 281 276 276 276 283 279 304 294 295 294 296 297 299 291 281 262
264 267 266 267 267 266 270 269 269 270 277 282 286 285 289 289 289 291 291 284 277 276 277 280 282 283 285 287 286 280 276 274 277 285 291 296 294 280 300 303 307 304 296 281 274
260 265 268 267 267 268 271 272 272 272 273 281 286 289 285 286 284 285 286 280 275 274 274 277 277 277 280 282 281 282 285 287 289 292 300 294 301 296 299 305 304 301 296 288 284
262 263 266 269 271 271 270 272 274 275 280 280 280 274 272 281 282 279 281 279 279 284 283 284 280 279 277 276 276 281 288 300 297 306 281 303 300 292 301 299 295 296 295 292 291
262 262 261 263 267 268 269 270 271 275 273 274 270 269 273 274 273 275 276 275 271 269 273 279 285 278 274 273 280 284 288 288 289 286 283 304 306 297 296 295 297 297 297 303 306
262 260 262 263 264 265 265 265 266 269 271 270 268 268 271 273 273 269 266 268 270 265 263 270 269 274 275 276 279 286 282 289 291 294 296 296 304 296 298 299 303 305 304 304 303
263 262 262 264 265 267 267 265 265 267 269 269 267 267 268 267 266 265 266 269 271 267 263 267 270 272 275 276 276 278 291 298 302 302 302 304 311 303 309 303 306 304 306 307 308
261 262 263 264 265 265 266 267 267 268 268 267 267 266 265 264 261 263 268 271 271 273 270 269 266 276 277 276 281 289 287 289 292 293 297 303 305 308 306 305 306 305 307 309 307
259 260 262 263 265 264 264 265 266 266 268 268 266 266 265 266 266 266 268 272 273 274 273 272 274 272 277 283 281 281 289 296 297 296 302 303 305 305 303 305 306 309 310 308 307
262 262 263 263 263 263 263 264 265 265 265 264 263 263 264 264 265 268 271 273 275 274 274 274 272 275 280 284 277 285 293 294 294 294 300 300 305 301 308 308 310 308 309 309 305
265 264 263 264 264 264 263 262 263 263 262 262 263 261 262 264 266 268 269 271 272 272 273 275 276 279 279 275 286 294 296 297 297 300 302 306 301 306 302 306 306 310 311 309 302
263 263 262 263 264 263 263 263 261 261 260 260 261 262 262 263 264 265 268 268 268 269 271 274 278 281 281 282 285 288 291 294 297 301 302 304 303 303 307 309 309 310 307 303 297
260 261 261 262 262 260 260 259 259 259 258 259 261 263 264 264 263 266 263 264 267 268 270 274 278 279 283 286 287 289 293 294 297 300 300 302 304 301 310 308 311 307 305 299 298
257 257 258 259 258 258 257 257 257 258 258 258 260 262 263 263 267 266 267 267 267 269 272 275 278 281 284 285 288 290 290 294 298 298 300 302 301 306 305 305 305 300 299 294 295